Location: 5810 Zion Rd, Cleves, OH 45002, USA
(39.1922°N, 84.7113°W)
Time: 10:51:47
(UTC-05:00)

Vanguard 2 Rocket - All Passes

Search period start: 05 December 2019 00:00
Search period end: 15 December 2019 00:00
Orbit: 554 x 3326 km, 32.9° (Epoch: 05 December)

Date Brightness Start Highest point End Pass type
(mag) Time Alt. Az. Time Alt. Az. Time Alt. Az.
05 Dec - 01:29:08 10° WSW 01:31:25 14° SSW 01:33:36 10° S night (unlit)
05 Dec - 17:42:49 10° SSW 17:52:30 22° SSE 17:59:16 10° ESE visible
05 Dec - 19:56:57 10° SW 20:06:53 40° SSE 20:12:50 10° E visible
05 Dec - 22:13:03 10° WSW 22:20:09 47° S 22:24:41 10° ESE visible
06 Dec - 00:28:34 10° WSW 00:32:25 23° SSW 00:35:37 10° SSE night (unlit)
06 Dec - 16:43:00 10° S 16:51:59 18° SSE 16:58:50 10° ESE daylight
06 Dec - 18:55:37 10° SW 19:06:55 36° SSE 19:13:47 10° E visible
06 Dec - 21:11:51 10° WSW 21:20:43 50° S 21:25:58 10° ESE visible
06 Dec - 23:27:59 10° W 23:33:23 34° SSW 23:37:16 10° SE night (unlit)
07 Dec - 15:44:32 10° S 15:51:15 14° SSE 15:56:56 10° ESE daylight
07 Dec - 17:54:23 10° SW 18:06:38 32° SSE 18:14:27 10° E visible
07 Dec - 20:10:19 10° WSW 20:21:01 49° S 20:27:10 10° E visible
07 Dec - 22:27:04 10° W 22:34:13 44° SSW 22:38:45 10° ESE visible
08 Dec - 00:43:25 10° WSW 00:46:12 15° SSW 00:48:38 10° S night (unlit)
08 Dec - 16:53:31 10° SSW 17:06:04 27° SSE 17:14:41 10° ESE daylight
08 Dec - 19:08:34 10° SW 19:21:02 47° SSE 19:28:14 10° E visible
08 Dec - 21:25:44 10° WSW 21:34:48 52° S 21:40:08 10° ESE visible
08 Dec - 23:42:19 10° W 23:47:14 25° SSW 23:50:53 10° SSE night (unlit)
09 Dec - 15:53:19 10° SSW 16:05:17 22° SSE 16:14:13 10° ESE daylight
09 Dec - 18:06:49 10° SW 18:20:44 43° SSE 18:29:04 10° E visible
09 Dec - 20:24:00 10° WSW 20:35:07 56° S 20:41:23 10° ESE visible
09 Dec - 22:41:11 10° W 22:48:10 38° SSW 22:52:39 10° SE visible
10 Dec - 14:54:16 10° S 15:04:18 17° SE 15:12:35 10° ESE daylight
10 Dec - 17:05:17 10° SW 17:20:07 38° SSE 17:29:36 10° E daylight
10 Dec - 19:21:58 10° WSW 19:35:07 55° S 19:42:30 10° E visible
10 Dec - 21:39:44 10° W 21:48:49 49° SSW 21:54:11 10° ESE visible
10 Dec - 23:57:03 10° WSW 00:00:54 17° SW 00:03:59 10° S night (unlit)
11 Dec - 13:58:09 10° SSE 14:03:14 12° SE 14:07:58 10° SE daylight
11 Dec - 16:04:15 10° SSW 16:19:13 32° SSE 16:29:40 10° E daylight
11 Dec - 18:19:50 10° WSW 18:34:47 53° SSE 18:43:26 10° E visible
11 Dec - 20:37:52 10° W 20:49:10 57° S 20:55:31 10° ESE visible
11 Dec - 22:55:28 10° W 23:01:56 29° SSW 23:06:17 10° SSE visible
12 Dec - 15:03:57 10° SSW 15:18:09 26° SSE 15:29:02 10° E daylight
12 Dec - 17:17:51 10° SW 17:34:06 48° SSE 17:44:06 10° E visible
12 Dec - 19:35:40 10° WSW 19:49:11 61° S 19:56:41 10° ESE visible
12 Dec - 21:53:49 10° W 22:02:43 42° SSW 22:08:04 10° SE visible
13 Dec - 00:13:28 10° SW 00:14:23 10° SW 00:15:14 10° SSW night (unlit)
13 Dec - 14:04:47 10° S 14:16:59 20° SE 14:27:18 10° ESE daylight
13 Dec - 16:16:13 10° SW 16:33:07 42° SSE 16:44:24 10° E daylight
13 Dec - 18:33:16 10° WSW 18:48:49 60° S 18:57:40 10° E visible
13 Dec - 20:51:50 10° W 21:03:10 54° SSW 21:09:33 10° ESE visible
13 Dec - 23:10:04 10° W 23:15:30 21° SW 23:19:27 10° SSE visible
14 Dec - 13:07:52 10° SSE 13:15:50 14° SE 13:23:16 10° ESE daylight
14 Dec - 15:15:12 10° SSW 15:31:54 36° SSE 15:44:13 10° E daylight
14 Dec - 17:30:55 10° WSW 17:48:05 57° SSE 17:58:23 10° E visible
14 Dec - 19:49:31 10° W 20:03:12 61° S 20:10:48 10° ESE visible
14 Dec - 22:08:02 10° W 22:16:26 33° SSW 22:21:42 10° SSE visible
